Weather History for Jackson, WY

Change the Weather History Date:

Tuesday, September 10, 2013

  Actual Average Record
Temperature  
Mean Temperature 58 °F -  
Max Temperature 73 °F 72 °F 84 °F (1959)
Min Temperature 42 °F 34 °F 21 °F (1962)
Degree Days  
Heating Degree Days 8    
Growing Degree Days 8 (Base 50)    
Moisture  
Dew Point 42 °F    
Average Humidity 66    
Maximum Humidity 93    
Minimum Humidity 25    
Precipitation  
Precipitation 0.00 in - - ()
Sea Level Pressure  
Sea Level Pressure 30.20 in    
Wind  
Wind Speed 9 mph (NNW)    
Max Wind Speed 17 mph    
Max Gust Speed -    
Visibility 10 miles    
Events      
Averages and records for this station are not official NWS values.
T = Trace of Precipitation, MM = Missing Value Source: NWS Daily Summary

Daily Weather History Graph

Daily Weather History Graph

Search for Another Location

Airport:

Trip Planner

Search our weather history database for the weather conditions in past years. The results will help you decide how hot, cold, wet, or windy it might be!

Date:

Astronomy

Sep. 10, 2013 Rise Set
Actual Time 6:57 AM MDT 7:41 PM MDT
Civil Twilight 6:28 AM MDT 8:10 PM MDT
Nautical Twilight 5:53 AM MDT 8:44 PM MDT
Astronomical Twilight 5:17 AM MDT 9:20 PM MDT
Moon 12:37 PM MDT (9/10) 10:36 PM MDT (9/10)
Length of Visible Light 13h 42m
Length of Day
12h 44m
Waxing Crescent, 29% of the Moon is Illuminated
Sep 10
Waxing Crescent
Sep 12
First Quarter
Sep 19
Full
Sep 26
Last Quarter
Oct 4
New

Hourly Weather History & Observations

Time (MDT) Temp. Windchill Dew Point Humidity Pressure Visibility Wind Dir Wind Speed Gust Speed Precip Events Conditions
12:15 AM 51.8 °F - 42.8 °F 71% 30.16 in 10.0 mi North 11.5 mph - N/A   Clear
12:35 AM 50.0 °F - 42.8 °F 76% 30.16 in 10.0 mi North 10.4 mph - N/A   Clear
12:55 AM 48.2 °F - 42.8 °F 82% 30.16 in 10.0 mi North 10.4 mph - N/A   Clear
1:15 AM 48.2 °F - 42.8 °F 82% 30.16 in 10.0 mi North 12.7 mph - N/A   Clear
1:35 AM 48.2 °F - 41.0 °F 76% 30.16 in 10.0 mi North 13.8 mph - N/A   Clear
2:15 AM 46.4 °F 40.1 °F 41.0 °F 81% 30.17 in 10.0 mi North 15.0 mph - N/A   Clear
2:35 AM 46.4 °F 39.8 °F 41.0 °F 81% 30.17 in 10.0 mi North 16.1 mph - N/A   Clear
2:55 AM 46.4 °F 39.5 °F 41.0 °F 81% 30.17 in 10.0 mi North 17.3 mph - N/A   Mostly Cloudy
3:15 AM 46.4 °F 39.5 °F 41.0 °F 81% 30.17 in 10.0 mi North 17.3 mph - N/A   Scattered Clouds
3:35 AM 46.4 °F 40.1 °F 41.0 °F 81% 30.18 in 10.0 mi North 15.0 mph - N/A   Clear
3:55 AM 46.4 °F 40.7 °F 39.2 °F 76% 30.18 in 10.0 mi North 12.7 mph - N/A   Clear
4:15 AM 44.6 °F 43.1 °F 41.0 °F 87% 30.18 in 10.0 mi NW 3.5 mph - N/A   Clear
4:35 AM 44.6 °F - 39.2 °F 81% 30.19 in 10.0 mi Calm Calm - N/A   Scattered Clouds
4:55 AM 44.6 °F - 39.2 °F 81% 30.19 in 10.0 mi Calm Calm - N/A   Partly Cloudy
5:15 AM 44.6 °F 41.4 °F 41.0 °F 87% 30.19 in 10.0 mi North 5.8 mph - N/A   Scattered Clouds
5:35 AM 44.6 °F 42.2 °F 41.0 °F 87% 30.20 in 10.0 mi North 4.6 mph - N/A   Overcast
5:55 AM 44.6 °F - 41.0 °F 87% 30.20 in 10.0 mi Calm Calm - N/A   Mostly Cloudy
6:16 AM 44.6 °F 42.2 °F 41.0 °F 87% 30.21 in 10.0 mi North 4.6 mph - N/A   Mostly Cloudy
6:35 AM 44.6 °F 42.2 °F 41.0 °F 87% 30.21 in 10.0 mi NNW 4.6 mph - N/A   Partly Cloudy
6:51 AM 44.6 °F 41.4 °F 41.0 °F 87% 30.21 in 10.0 mi North 5.8 mph - N/A   Partly Cloudy
7:51 AM 42.8 °F - 41.0 °F 93% 30.23 in 10.0 mi Calm Calm - N/A   Clear
8:53 AM 48.2 °F - 42.8 °F 82% 30.23 in 10.0 mi Calm Calm - N/A   Clear
9:51 AM 55.4 °F - 44.6 °F 67% 30.24 in 10.0 mi Calm Calm - N/A   Clear
10:51 AM 64.4 °F - 44.6 °F 49% 30.23 in 10.0 mi SSW 5.8 mph - N/A   Clear
11:53 AM 64.4 °F - 46.4 °F 52% 30.22 in 10.0 mi South 5.8 mph - N/A   Clear
12:51 PM 68.0 °F - 44.6 °F 43% 30.21 in 10.0 mi SSE 3.5 mph - N/A   Clear
1:55 PM 71.6 °F - 42.8 °F 35% 30.20 in 10.0 mi South 6.9 mph - N/A   Clear
2:51 PM 71.6 °F - 42.8 °F 35% 30.19 in 10.0 mi SW 6.9 mph - N/A   Scattered Clouds
3:52 PM 73.4 °F - 39.2 °F 29% 30.17 in 10.0 mi SSW 4.6 mph - N/A   Clear
4:51 PM 73.4 °F - 35.6 °F 25% 30.17 in 10.0 mi WNW 4.6 mph - N/A   Partly Cloudy
5:54 PM 71.6 °F - 42.8 °F 35% 30.16 in 10.0 mi SSW 6.9 mph - N/A   Clear
6:51 PM 71.6 °F - 42.8 °F 35% 30.17 in 10.0 mi SW 3.5 mph - N/A   Clear
7:57 PM 64.4 °F - 46.4 °F 52% 30.19 in 10.0 mi Calm Calm - N/A   Clear
8:55 PM 59.0 °F - 44.6 °F 59% 30.22 in 10.0 mi NNW 4.6 mph - N/A   Mostly Cloudy
9:15 PM 57.2 °F - 44.6 °F 63% 30.22 in 10.0 mi NW 4.6 mph - N/A   Mostly Cloudy
9:35 PM 59.0 °F - 42.8 °F 55% 30.23 in 10.0 mi NNW 5.8 mph - N/A   Scattered Clouds
9:55 PM 59.0 °F - 42.8 °F 55% 30.24 in 10.0 mi NNW 6.9 mph - N/A   Partly Cloudy
10:15 PM 62.6 °F - 41.0 °F 45% 30.24 in 10.0 mi North 13.8 mph - N/A   Scattered Clouds
10:35 PM 60.8 °F - 42.8 °F 52% 30.25 in 10.0 mi North 6.9 mph - N/A   Partly Cloudy
10:55 PM 60.8 °F - 42.8 °F 52% 30.25 in 10.0 mi North 11.5 mph - N/A   Clear
11:15 PM 57.2 °F - 42.8 °F 59% 30.25 in 10.0 mi North 8.1 mph - N/A   Clear
11:35 PM 57.2 °F - 42.8 °F 59% 30.26 in 10.0 mi North 6.9 mph - N/A   Clear
11:55 PM 57.2 °F - 42.8 °F 59% 30.26 in 10.0 mi North 5.8 mph - N/A   Clear